"Pseudo-MPEC" for P10N31R

Created 2019 Apr 22 2:07:27 UT using Find_Orb

Click here for an explanation of pseudo-MPECs

 
 Astrometry: 
     P10N31R  C2019 04 09/+/ZHD?5lY:Iw8HfU:4GUs-bU*A*b2irqx,@CKUi_I9\;;pUjqddF51
     P10N31R  C2019 04 09YMs=n#ZZG,Ry8rv='fQY9lN;=),hHJ!uC?iyJG_VGwNCn/cK`vd-F51
     P10N31R  C2019 04 09JYJ.?lVin+f3NgfRhK.563JFPu,'99+M=9F0Ij$.Vk]wW5f\DU8ZF51
     P10N31R |C2019 04 09BbZM8gT+Z_2RSYbVI@eYAstrometry1H1Bredacted;7wX5,pJ)2807
     P10N31R |C2019 04 09*V$Kd0click,#B8VUgXt,8here_.I[E9[`c_iuiET;cd!g`9wmdt807
     P10N31R |C2019 04 09gpfL$ia$i9*=xslgsF(\d]IKvGAieo06\for6n%wrow1yn/LaQE-807
     P10N31R |C2019 04 11Y\rq+wm,7L3GbI^VO5explanation)xg:Q[$#BU#Ph_H_jE-Q=D#807
     P10N31R |C2019 04 11*E?T]O]sX[`MfA+id`ln(QphvoO'2s*p#$RaOev5lb0w,t7RB?^8807
     P10N31R |C2019 04 11aZa6ascED\H^.0gs`e#2/aSa]sEvZY7Kte4s/puW.*guW(ww+d9:807
     P10N31R |C2019 04 14%GUb@U8ThP%c;:6J02[?p#:'+l$60r*i?9Q9nDm]NsC36Gw(L+1T807
     P10N31R |C2019 04 156W2A*00#J;r90/g]c0JWGV:]E)76:#[b'Ee+`\#F3A)PR-Pc.a#x807
     P10N31R |C2019 04 15Ic59#lU8T6]tADVyxf?_KlG5.l[,oDu.HA`vTDpPBOt(;9AW?g$T807

Station data:
(807) Cerro Tololo Observatory, La Serena  (S30.169136 W70.805900)  Chile.
(F51) Pan-STARRS 1, Haleakala  (N20.707235 W156.255910)  US/Hawaii.
   Observers N. Primak, A. Schultz, S. Watters, J. Thiel, T. Goggia. Measurer
   PS1 Science Consortium. 1.8-m Ritchey-Chrétien + CCD.

Orbital elements:  P10N31R
   Perihelion 2018 Nov 12.661431 +/- 35.9 TT = 15:52:27 (JD 2458435.161431)
Epoch 2019 Apr 15.0 TT = JDT 2458588.5   Sa: 0.5299   Ur: 0.7579
M   0.18152430 +/- 0.9              (J2000 ecliptic)          AutoNEOCP
n   0.00118381 +/- 0.00465          Peri.  294.25826 +/- 3.9
a  88.5007876 +/- 230               Node   131.01496 +/- 0.6
e   0.9328536 +/- 0.174             Incl.  138.11072 +/- 0.24
P 832.57                   H 13.2   G  0.15   U  9.1  
q 5.94250742 +/- 0.0686    Q 171.059067 +/- 135
From 12 observations 2019 Apr. 9-15; mean residual 0".29
Residuals in arcseconds: 
190409 F51  .21-  .19+    190409 807  .15+  .45-    190411 807  .21-  .25+    
190409 F51  .13-  .29+    190409 807  .15+  .48-    190414 807  .26-  .05-    
190409 F51  .09-  .03+    190411 807  .22-  .02+    190415 807  .32+  .29+    
190409 807  .78+  .33-    190411 807  .15-  .39+    190415 807  .04-  .26-    

Ephemerides (geocentric):
Date (UTC) HH   RA              Dec         delta   r     elong  mag " sig PA
---- -- -- --  -------------   -----------  ------ ------ -----  --- ---- ---
2019 04 22 02  10 08 05.121   -26 31 37.57  5.4158 6.0419 124.5 21.3 4.92  58
2019 04 22 03  10 08 03.636   -26 31 06.10  5.4163 6.0420 124.5 21.3 4.96  58
2019 04 22 04  10 08 02.152   -26 30 34.64  5.4168 6.0420 124.4 21.3 5.01  58
2019 04 22 05  10 08 00.670   -26 30 03.19  5.4173 6.0421 124.4 21.3 5.05  58
2019 04 22 06  10 07 59.190   -26 29 31.74  5.4178 6.0421 124.4 21.3 5.10  59
2019 04 22 07  10 07 57.712   -26 29 00.29  5.4183 6.0422 124.3 21.3 5.14  59
2019 04 22 08  10 07 56.235   -26 28 28.84  5.4188 6.0422 124.3 21.3 5.19  59
2019 04 22 09  10 07 54.760   -26 27 57.40  5.4192 6.0423 124.2 21.3 5.23  59
2019 04 22 10  10 07 53.286   -26 27 25.97  5.4197 6.0423 124.2 21.3 5.28  59
2019 04 22 11  10 07 51.814   -26 26 54.53  5.4202 6.0424 124.2 21.3 5.33  59
2019 04 22 12  10 07 50.344   -26 26 23.10  5.4207 6.0424 124.1 21.3 5.37  59
2019 04 22 13  10 07 48.875   -26 25 51.68  5.4212 6.0425 124.1 21.3 5.42  59
2019 04 22 14  10 07 47.408   -26 25 20.26  5.4217 6.0425 124.1 21.3 5.47  59
2019 04 22 15  10 07 45.943   -26 24 48.84  5.4222 6.0426 124.0 21.3 5.51  59
2019 04 22 16  10 07 44.480   -26 24 17.43  5.4227 6.0426 124.0 21.3 5.56  59
2019 04 22 17  10 07 43.018   -26 23 46.02  5.4232 6.0427 124.0 21.3 5.61  59
2019 04 22 18  10 07 41.557   -26 23 14.61  5.4237 6.0427 123.9 21.3 5.66  59
2019 04 22 19  10 07 40.099   -26 22 43.21  5.4242 6.0428 123.9 21.3 5.70  59
2019 04 22 20  10 07 38.642   -26 22 11.81  5.4247 6.0428 123.9 21.3 5.75  59
2019 04 22 21  10 07 37.187   -26 21 40.42  5.4252 6.0429 123.8 21.3 5.80  59
2019 04 22 22  10 07 35.733   -26 21 09.03  5.4257 6.0429 123.8 21.3 5.85  59
2019 04 22 23  10 07 34.281   -26 20 37.64  5.4262 6.0430 123.8 21.3 5.90  59
2019 04 23 00  10 07 32.831   -26 20 06.26  5.4267 6.0430 123.7 21.3 5.95  59
2019 04 23 01  10 07 31.383   -26 19 34.88  5.4272 6.0431 123.7 21.3 6.00  59
2019 04 23 02  10 07 29.936   -26 19 03.51  5.4277 6.0432 123.7 21.3 6.05  59
2019 04 23 03  10 07 28.490   -26 18 32.14  5.4282 6.0432 123.6 21.3 6.10  59
2019 04 23 04  10 07 27.047   -26 18 00.78  5.4287 6.0433 123.6 21.3 6.14  59
2019 04 23 05  10 07 25.605   -26 17 29.42  5.4292 6.0433 123.6 21.3 6.19  59
2019 04 23 06  10 07 24.165   -26 16 58.06  5.4297 6.0434 123.5 21.3 6.24  59
2019 04 23 07  10 07 22.726   -26 16 26.71  5.4302 6.0434 123.5 21.3 6.30  59
2019 04 23 08  10 07 21.289   -26 15 55.36  5.4307 6.0435 123.5 21.3 6.35  59
2019 04 23 09  10 07 19.854   -26 15 24.02  5.4312 6.0435 123.4 21.3 6.40  59
2019 04 23 10  10 07 18.420   -26 14 52.68  5.4317 6.0436 123.4 21.3 6.45  59
2019 04 23 11  10 07 16.989   -26 14 21.34  5.4322 6.0436 123.4 21.3 6.50  59
2019 04 23 12  10 07 15.558   -26 13 50.01  5.4327 6.0437 123.3 21.3 6.55  59
2019 04 23 13  10 07 14.130   -26 13 18.68  5.4332 6.0437 123.3 21.3 6.60  59
2019 04 23 14  10 07 12.703   -26 12 47.36  5.4337 6.0438 123.3 21.3 6.65  59
2019 04 23 15  10 07 11.278   -26 12 16.04  5.4342 6.0438 123.2 21.3 6.70  60
2019 04 23 16  10 07 09.854   -26 11 44.73  5.4347 6.0439 123.2 21.3 6.76  60
2019 04 23 17  10 07 08.432   -26 11 13.42  5.4352 6.0439 123.1 21.3 6.81  60
2019 04 23 18  10 07 07.012   -26 10 42.11  5.4357 6.0440 123.1 21.3 6.86  60
2019 04 23 19  10 07 05.593   -26 10 10.81  5.4362 6.0440 123.1 21.3 6.91  60
2019 04 23 20  10 07 04.176   -26 09 39.51  5.4367 6.0441 123.0 21.3 6.97  60
2019 04 23 21  10 07 02.761   -26 09 08.22  5.4372 6.0441 123.0 21.3 7.02  60
2019 04 23 22  10 07 01.347   -26 08 36.94  5.4378 6.0442 123.0 21.3 7.07  60
2019 04 23 23  10 06 59.935   -26 08 05.65  5.4383 6.0442 122.9 21.3 7.13  60
2019 04 24 00  10 06 58.525   -26 07 34.37  5.4388 6.0443 122.9 21.3 7.18  60
2019 04 24 01  10 06 57.117   -26 07 03.10  5.4393 6.0443 122.9 21.3 7.23  60